Location: Congrier
(47.8099°N, 1.1170°W)
Time: 09:18:28
(UTC+00:00)

USA 215 - Pass Details

Date: 28 January 2023
Orbit: 1097 x 1110 km, 123.0° (Epoch: 21 March)

Event Time Altitude Azimuth Distance (km) Brightness Sun altitude
Rises 17:22:45 0° 141° (SE) 3,907 6.0 -4.6°
Reaches altitude 10° 17:25:18 10° 146° (SE) 2,951 5.4 -5.0°
Maximum altitude 17:31:40 56° 223° (SW) 1,296 4.1 -6.0°
Drops below altitude 10° 17:38:04 10° 301° (WNW) 2,958 6.1 -7.0°
Sets 17:40:37 0° 306° (NW) 3,917 6.7 -7.4°
